Glendale Luke AFB, AZ

4:36 PM MST on November 14, 2019 (GMT -0700)
Luke Air Force Base

Weather History for KLUF - September, 2019

Change the Weather History Date:

Friday, September 20, 2019

  Actual Average Record
Temperature  
Mean Temperature 80 °F -  
Max Temperature 93 °F 99 °F 109 °F (1962)
Min Temperature 66 °F 62 °F 46 °F (1978)
Cooling Degree Days 14    
Growing Degree Days 30 (Base 50)    
Moisture  
Dew Point 34 °F    
Average Humidity 20    
Maximum Humidity 35    
Minimum Humidity 10    
Precipitation  
Precipitation 0.00 in - - ()
Sea Level Pressure  
Sea Level Pressure 29.73 in    
Wind  
Wind Speed 6 mph (SW)    
Max Wind Speed 16 mph    
Max Gust Speed 16 mph    
Visibility 10 miles    
Events      
Averages and records for this station are not official NWS values.
T = Trace of Precipitation, MM = Missing Value Source: NWS Daily Summary

Daily Weather History Graph

Daily Weather History Graph

Search for Another Location

Airport or City:

Astronomy

Sep. 20, 2019 Rise Set
Actual Time 6:16 AM MST 6:29 PM MST
Civil Twilight 5:51 AM MST 6:54 PM MST
Nautical Twilight 5:22 AM MST 7:23 PM MST
Astronomical Twilight 4:52 AM MST 7:52 PM MST
Moon 10:39 PM MST (9/20) 12:08 PM MST (9/20)
Length of Visible Light 13h 02m
Length of Day
12h 12m
Waning Gibbous, 64% of the Moon is Illuminated
Sep 20
Waning Gibbous
Sep 21
Last Quarter
Sep 28
New
Oct 5
First Quarter
Oct 13
Full

Hourly Weather History & Observations

Time (MST) Temp. Dew Point Humidity Pressure Visibility Wind Dir Wind Speed Gust Speed Precip Events Conditions
12:58 AM 79.5 °F 32.4 °F 18% 29.68 in 10.0 mi SW 8.1 mph - N/A   Clear
1:58 AM 77.7 °F 33.4 °F 20% 29.68 in 10.0 mi SSW 6.9 mph - N/A   Clear
2:58 AM 72.9 °F 36.0 °F 26% 29.69 in 10.0 mi Calm Calm - N/A   Clear
3:58 AM 69.4 °F 36.7 °F 30% 29.70 in 10.0 mi Calm Calm - N/A   Clear
4:58 AM 67.6 °F 36.7 °F 32% 29.72 in 10.0 mi NE 3.5 mph - N/A   Clear
5:58 AM 66.7 °F 38.1 °F 35% 29.73 in 10.0 mi NNW 8.1 mph - N/A   Clear
6:58 AM 68.2 °F 34.7 °F 29% 29.76 in 10.0 mi North 3.5 mph - N/A   Clear
7:58 AM 73.9 °F 36.9 °F 26% 29.78 in 10.0 mi Calm Calm - N/A   Clear
8:58 AM 80.1 °F 37.8 °F 22% 29.78 in 9.0 mi South 3.5 mph - N/A   Clear
9:58 AM 83.8 °F 38.5 °F 20% 29.78 in 10.0 mi SSE 9.2 mph - N/A   Clear
10:58 AM 86.5 °F 39.4 °F 19% 29.78 in 10.0 mi South 6.9 mph - N/A   Clear
11:58 AM 90.7 °F 36.7 °F 15% 29.77 in 10.0 mi South 5.8 mph - N/A   Clear
12:58 PM 91.2 °F 35.2 °F 14% 29.75 in 10.0 mi SW 9.2 mph - N/A   Clear
1:58 PM 92.1 °F 30.0 °F 11% 29.73 in 10.0 mi SSW 6.9 mph - N/A   Clear
2:58 PM 93.7 °F 33.4 °F 12% 29.73 in 10.0 mi WSW 9.2 mph 16.1 mph N/A   Clear
3:58 PM 93.9 °F 31.5 °F 11% 29.72 in 10.0 mi SW 16.1 mph - N/A   Clear
4:58 PM 93.7 °F 31.3 °F 11% 29.71 in 10.0 mi West 10.4 mph - N/A   Clear
5:58 PM 92.5 °F 28.0 °F 10% 29.70 in 10.0 mi WSW 8.1 mph - N/A   Clear
6:58 PM 87.4 °F 26.4 °F 11% 29.70 in 10.0 mi WSW 4.6 mph - N/A   Clear
7:58 PM 83.7 °F 31.1 °F 15% 29.72 in 10.0 mi West 4.6 mph - N/A   Clear
8:58 PM 78.4 °F 36.5 °F 22% 29.74 in 10.0 mi WSW 4.6 mph - N/A   Clear
9:58 PM 79.2 °F 33.3 °F 19% 29.75 in 10.0 mi Calm Calm - N/A   Clear
10:58 PM 77.7 °F 32.2 °F 19% 29.75 in 10.0 mi North 3.5 mph - N/A   Clear
11:58 PM 74.7 °F 32.2 °F 21% 29.77 in 10.0 mi Calm Calm - N/A   Clear